This demonstration page uses our WeatherBlox Daily Observations layout. Learn more.

40.92945, -100.16068

Hourly Observations for October 31, 2019

Temp ( °F °C ) Dew Point ( °F °C ) Humidity (%) Winds ( mph kmh ) Pressure ( in mb ) Visibility ( mi km ) Precip ( " mm )
12:15 am 00:15 Clear 12 -11.1 8 -13.4 83 83 WNW 9 15 30.47 1032 10 16.0934 0 0
12:35 am 00:35 Clear 12 -11 8 -13.5 82 82 WNW 9 15 30.47 1032 10 16.0934 0 0
12:55 am 00:55 Clear 12 -11 8 -13.6 81 81 WNW 9 15 30.47 1032 10 16.0934 0 0
1:15 am 01:15 Clear 13 -10.4 8 -13.6 78 78 WNW 9 15 30.48 1032 10 16.0934 0 0
1:35 am 01:35 Clear 13 -10.4 7 -13.8 76 76 WNW 10 17 30.47 1032 10 16.0934 0 0
1:55 am 01:55 Clear 13 -10.6 8 -13.6 79 79 WNW 9 15 30.47 1032 10 16.0934 0 0
2:15 am 02:15 Clear 12 -11.2 7 -14 80 80 WNW 12 19 30.49 1032 10 16.0934 0 0
2:35 am 02:35 Clear 12 -11 7 -13.8 80 80 WNW 10 17 30.48 1032 10 16.0934 0 0
2:55 am 02:55 Clear 11 -11.6 7 -14.1 82 82 WNW 8 13 30.48 1032 10 16.0934 0 0
3:15 am 03:15 Clear 10 -12.5 6 -14.6 84 84 WNW 10 17 30.48 1032 10 16.0934 0 0
3:35 am 03:35 Partly Cloudy 8 -13.2 5 -15.2 85 85 NW 7 11 30.49 1032 10 16.0934 0 0
3:55 am 03:55 Partly Cloudy 9 -12.8 5 -15 84 84 WNW 7 11 30.47 1032 10 16.0934 0 0
4:15 am 04:15 Clear 8 -13.1 5 -15.1 85 85 WNW 6 9 30.47 1032 10 16.0934 0 0
4:35 am 04:35 Clear 8 -13.5 4 -15.5 85 85 WNW 6 9 30.47 1032 10 16.0934 0 0
4:55 am 04:55 Clear 7 -13.8 4 -15.7 86 86 WNW 7 11 30.46 1032 10 16.0934 0 0
5:15 am 05:15 Clear 7 -14.1 3 -16 86 86 WNW 7 11 30.47 1032 10 16.0934 0 0
5:35 am 05:35 Clear 8 -13.5 4 -15.5 85 85 WNW 9 15 30.47 1032 10 16.0934 0 0
5:55 am 05:55 Clear 8 -13.6 4 -15.6 85 85 WNW 8 13 30.47 1032 10 16.0934 0 0
6:15 am 06:15 Clear 8 -13.2 4 -15.5 83 83 WNW 9 15 30.47 1032 10 16.0934 0 0
6:35 am 06:35 Clear 8 -13.5 4 -15.7 84 84 WNW 9 15 30.47 1032 10 16.0934 0 0
6:55 am 06:55 Clear 7 -13.9 3 -16 84 84 WNW 7 11 30.46 1032 10 16.0934 0 0
7:15 am 07:15 Clear 7 -14 3 -16 85 85 WNW 7 11 30.47 1032 10 16.0934 0 0
7:35 am 07:35 Clear 7 -13.8 3 -16 84 84 WNW 9 15 30.46 1032 10 16.0934 0 0
7:55 am 07:55 Clear 7 -14 3 -16 85 85 WNW 8 13 30.47 1032 10 16.0934 0 0
8:15 am 08:15 Sunny 7 -14 3 -16 85 85 W 6 9 30.46 1031 10 16.0934 0 0
8:35 am 08:35 Sunny 7 -13.8 3 -16 84 84 WNW 5 7 30.45 1031 10 16.0934 0 0
8:55 am 08:55 Sunny 8 -13.2 4 -15.5 83 83 WNW 8 13 30.46 1031 10 16.0934 0 0
9:15 am 09:15 Sunny 10 -12.5 6 -14.7 84 84 WNW 5 7 30.45 1031 10 16.0934 0 0
9:35 am 09:35 Sunny 12 -11.3 7 -14 81 81 WNW 7 11 30.44 1031 10 16.0934 0 0
9:55 am 09:55 Sunny 13 -10.4 8 -13.2 80 80 W 6 9 30.42 1030 10 16.0934 0 0
10:15 am 10:15 Sunny 14 -9.9 9 -12.9 79 79 W 6 9 30.42 1030 10 16.0934 0 0
10:35 am 10:35 Sunny 17 -8.6 11 -11.8 78 78 W 5 7 30.41 1030 10 16.0934 0 0
10:55 am 10:55 Sunny 19 -7.2 11 -11.4 72 72 W 7 11 30.38 1029 10 16.0934 0 0
11:15 am 11:15 Sunny 21 -6.1 12 -11.1 68 68 W 6 9 30.37 1028 10 16.0934 0 0
11:35 am 11:35 Sunny 23 -4.8 13 -10.6 64 64 W 6 9 30.35 1028 10 16.0934 0 0
11:55 am 11:55 Sunny 26 -3.5 14 -10 61 61 W 8 13 30.33 1027 10 16.0934 0 0
12:15 pm 12:15 Sunny 28 -2.1 16 -8.7 61 61 W 6 9 30.31 1026 10 16.0934 0 0
12:35 pm 12:35 Sunny 31 -0.3 18 -8 56 56 SSW 7 11 30.29 1026 10 16.0934 0 0
12:55 pm 12:55 Sunny 33 0.4 18 -7.6 55 55 SW 7 11 30.27 1025 10 16.0934 0 0
1:15 pm 13:15 Sunny 34 1 18 -7.8 52 52 SW 9 15 30.25 1024 10 16.0934 0 0
1:35 pm 13:35 Sunny 34 1.1 20 -6.7 56 56 WSW 9 15 30.24 1024 10 16.0934 0 0
1:55 pm 13:55 Sunny 35 1.8 21 -6.2 56 56 W 12 19 30.22 1023 10 16.0934 0 0
2:15 pm 14:15 Sunny 36 2.2 20 -6.4 53 53 WSW 9 15 30.21 1023 10 16.0934 0 0
2:35 pm 14:35 Sunny 37 2.8 20 -6.5 51 51 WSW 10 17 30.2 1023 10 16.0934 0 0
2:55 pm 14:55 Sunny 38 3.5 21 -6 50 50 WSW 10 17 30.18 1022 10 16.0934 0 0
3:15 pm 15:15 Sunny 39 3.7 22 -5.8 50 50 WSW 9 15 30.18 1022 10 16.0934 0 0
3:35 pm 15:35 Sunny 40 4.5 22 -5.5 49 49 WSW 9 15 30.16 1021 10 16.0934 0 0
3:55 pm 15:55 Sunny 41 5 23 -4.9 49 49 WSW 13 20 30.16 1021 10 16.0934 0 0
4:15 pm 16:15 Sunny 42 5.5 24 -4.6 49 49 W 10 17 30.14 1021 10 16.0934 0 0
4:35 pm 16:35 Sunny 42 5.7 23 -4.8 47 47 W 10 17 30.14 1021 10 16.0934 0 0
4:55 pm 16:55 Sunny 43 6.1 24 -4.4 47 47 W 9 15 30.14 1021 10 16.0934 0 0
5:15 pm 17:15 Sunny 44 6.4 24 -4.3 47 47 SW 7 11 30.12 1020 10 16.0934 0 0
5:35 pm 17:35 Sunny 43 6.2 25 -3.8 49 49 WSW 6 9 30.12 1020 10 16.0934 0 0
5:55 pm 17:55 Sunny 43 5.9 25 -3.7 51 51 SW 8 13 30.12 1020 10 16.0934 0 0
6:15 pm 18:15 Sunny 41 5 26 -3.5 55 55 SW 7 11 30.12 1020 10 16.0934 0 0
6:35 pm 18:35 Sunny 38 3.2 26 -3.6 61 61 SW 8 13 30.15 1021 10 16.0934 0 0
6:55 pm 18:55 Clear 37 2.9 25 -4.1 60 60 SW 7 11 30.14 1021 10 16.0934 0 0
7:15 pm 19:15 Clear 36 2.3 24 -4.2 63 63 SW 9 15 30.15 1021 10 16.0934 0 0
7:35 pm 19:35 Clear 36 2.2 24 -4.6 61 61 SW 7 11 30.16 1021 10 16.0934 0 0
7:55 pm 19:55 Clear 36 2.3 24 -4.5 61 61 SW 8 13 30.15 1021 10 16.0934 0 0
8:15 pm 20:15 Clear 35 1.6 25 -4.1 66 66 SW 7 11 30.17 1022 10 16.0934 0 0
8:35 pm 20:35 Clear 36 2.1 25 -3.9 65 65 WSW 6 9 30.16 1021 10 16.0934 0 0
8:55 pm 20:55 Clear 36 2 25 -4 65 65 WSW 8 13 30.15 1021 10 16.0934 0 0
9:15 pm 21:15 Clear 35 1.9 25 -3.9 66 66 WSW 7 11 30.15 1021 10 16.0934 0 0
9:35 pm 21:35 Clear 35 1.6 25 -4 67 67 WSW 7 11 30.15 1021 10 16.0934 0 0
9:55 pm 21:55 Clear 33 0.5 25 -4 72 72 WNW 5 7 30.16 1021 10 16.0934 0 0
10:15 pm 22:15 Clear 31 -0.5 24 -4.2 76 76 WNW 5 7 30.18 1022 10 16.0934 0 0
10:35 pm 22:35 Clear 28 -2 24 -4.5 83 83 WNW 6 9 30.2 1023 10 16.0934 0 0
10:55 pm 22:55 Clear 29 -1.8 24 -4.4 83 83 WNW 5 7 30.2 1023 10 16.0934 0 0
11:15 pm 23:15 Clear 28 -2.1 24 -4.3 85 85 N 6 9 30.2 1023 10 16.0934 0 0
11:35 pm 23:35 Clear 28 -2.5 24 -4.6 86 86 NNW 7 11 30.19 1022 10 16.0934 0 0
11:55 pm 23:55 Clear 28 -2.3 24 -4.2 87 87 Calm 30.19 1022 10 16.0934 0 0

Powered by AerisWeather